Location: Lac Echo
(45.9375°N, 75.4580°W)
Time: 03:04:03
(UTC-05:00)

Amateur Radio Satellites - All Passes

Search period start: 19 December 2014 02:34
Search period end: 20 December 2014 02:34
Location: Lac Echo, 45.9375°N, 75.4580°W

Satellite Date Start Highest point End Downlink Frequencies (MHz)
Time Altitude Azimuth
KKS-1 19 Dec 02:36:45 02:40:31 27° 265° (W) 02:44:19 437.445
STARS 19 Dec 02:36:49 02:40:53 38° 262° (W) 02:45:00 437.465
Gurwin Techsat 1B 19 Dec 02:38:39 02:43:55 61° 101° (ESE) 02:49:10 435.225
Oscar 19 19 Dec 02:43:57 02:48:34 33° 295° (WNW) 02:53:09 437.125/150
ITAMSAT 1 19 Dec 02:54:59 03:00:06 64° 288° (WNW) 03:05:12 435.822/435.867
MOZHAYETS 4 19 Dec 03:31:35 03:35:56 41° 70° (ENE) 03:40:19
GONETS M04 19 Dec 03:42:13 03:45:53 13° 71° (ENE) 03:49:32
AIST 1 19 Dec 03:43:58 03:48:17 89° 260° (W) 03:52:32
HORYU 2 19 Dec 03:54:47 03:59:15 60° 288° (WNW) 04:03:42 437.375
AO-7 19 Dec 03:55:40 04:03:44 49° 101° (E) 04:11:44 29.400- 29.500
STRAND 1 19 Dec 04:18:13 04:20:23 13° 55° (NE) 04:22:34 437.568
Gurwin Techsat 1B 19 Dec 04:19:31 04:23:27 22° 300° (WNW) 04:27:22 435.225
VERMONT LUNAR 19 Dec 04:29:52 04:32:44 23° 164° (SSE) 04:35:36 437.305
SO-50 19 Dec 04:31:45 04:35:43 24° 37° (NE) 04:39:42 436.795
JAS-2 19 Dec 04:34:54 04:40:09 34° 94° (E) 04:44:57 435.910
PHONESAT 2.4 19 Dec 04:35:05 04:37:49 20° 160° (SSE) 04:40:35 2401.200-2431.200
ITAMSAT 1 19 Dec 04:37:42 04:38:35 10° 307° (NW) 04:39:29 435.822/435.867
CUBESAT XI-V 19 Dec 04:50:19 04:53:56 23° 64° (ENE) 04:57:33 437.345
PRISM 19 Dec 04:56:30 05:00:36 50° 71° (ENE) 05:04:42 437.425
MOZHAYETS 4 19 Dec 05:09:35 05:13:19 24° 267° (W) 05:17:04
GONETS M04 19 Dec 05:32:09 05:40:50 66° 92° (E) 05:49:33
Cubesat XI-IV 19 Dec 05:36:21 05:40:51 27° 94° (E) 05:45:18 437.490
AO-7 19 Dec 05:48:40 05:56:28 45° 301° (WNW) 06:04:14 29.400- 29.500
STRAND 1 19 Dec 05:53:39 05:58:45 79° 74° (ENE) 06:03:53 437.568
VERMONT LUNAR 19 Dec 06:07:22 06:10:36 34° 180° (S) 06:13:50 437.305
CUTE-I 19 Dec 06:09:43 06:14:55 51° 100° (E) 06:20:04 437.470
SO-50 19 Dec 06:11:52 06:16:44 70° 237° (WSW) 06:21:37 436.795
PHONESAT 2.4 19 Dec 06:12:41 06:16:01 34° 177° (S) 06:19:20 2401.200-2431.200
JAS-2 19 Dec 06:20:01 06:25:17 36° 296° (WNW) 06:30:07 435.910
CUBESAT XI-V 19 Dec 06:26:37 06:31:06 45° 262° (W) 06:35:36 437.345
PRISM 19 Dec 06:33:41 06:36:25 17° 268° (W) 06:39:09 437.425
Cubesat XI-IV 19 Dec 07:16:04 07:21:07 45° 292° (WNW) 07:26:08 437.490
HO-68 19 Dec 07:22:36 07:25:54 14° 85° (E) 07:29:12 435.675
GONETS M04 19 Dec 07:30:38 07:38:19 32° 295° (WNW) 07:46:02
STRAND 1 19 Dec 07:35:54 07:38:33 14° 271° (W) 07:41:13 437.568
AO-7 19 Dec 07:43:48 07:47:09 13° 324° (NW) 07:50:30 29.400- 29.500
VERMONT LUNAR 19 Dec 07:45:38 07:48:28 22° 197° (SSW) 07:51:17 437.305
SEEDS 19 Dec 07:50:07 07:51:11 11° 87° (E) 07:52:15 437.485
CUTE-I 19 Dec 07:50:25 07:54:40 25° 298° (WNW) 07:58:55 437.470
CUTE 1.7 + AOD 2 19 Dec 07:50:27 07:52:29 13° 89° (E) 07:54:30 437.475
PHONESAT 2.4 19 Dec 07:51:10 07:54:16 27° 194° (SSW) 07:57:22 2401.200-2431.200
DOVE 4 19 Dec 07:58:04 07:59:04 11° 87° (E) 08:00:05 437.250
UNISAT 6 19 Dec 08:13:17 08:14:18 11° 56° (ENE) 08:15:20 437.425
BRITE-PL 19 Dec 08:25:01 08:29:16 35° 97° (E) 08:33:47 437.365/2234.400
DUCHIFAT 1 19 Dec 08:34:00 08:34:46 10° 58° (ENE) 08:35:32 145.980
CINEMA 3 19 Dec 08:34:15 08:37:01 15° 90° (E) 08:39:51 145.822/145.860
ANTELSAT 19 Dec 08:42:28 08:45:42 20° 63° (ENE) 08:48:59 437.575/2403.000
QB50P2 19 Dec 08:44:44 08:46:57 14° 60° (ENE) 08:49:09 145.880/145.840
AAUSAT CUBESAT 2 19 Dec 08:46:04 08:49:53 31° 96° (E) 08:53:40 437.432
POLYITAN 1 19 Dec 08:52:26 08:55:06 17° 62° (ENE) 08:57:46 437.675
CANX-2 19 Dec 08:53:27 08:57:47 64° 101° (E) 09:02:03 2200.000
NANOSAT C BR1 19 Dec 08:55:58 08:58:46 18° 63° (ENE) 09:01:35 145.865
DANDE 19 Dec 08:57:52 09:00:14 17° 82° (E) 09:03:00 436.750
GOMX 1 19 Dec 08:59:49 09:04:25 56° 100° (E) 09:09:20 467.674
HO-68 19 Dec 09:07:39 09:14:50 74° 105° (ESE) 09:21:57 435.675
QB50P1 19 Dec 09:09:25 09:12:46 24° 65° (ENE) 09:16:08 145.935-145.965
UWE-3 19 Dec 09:09:53 09:13:03 18° 91° (E) 09:16:15 435.000/436.395/437.385
O/OREOS (USA 219) 19 Dec 09:12:59 09:16:05 18° 50° (NE) 09:19:12 437.305
FUNcube-1 19 Dec 09:13:32 09:16:25 17° 91° (E) 09:19:18 145.935
TIGRISAT 19 Dec 09:17:58 09:22:03 42° 70° (ENE) 09:26:16 435.000
COMPASS 1 19 Dec 09:19:55 09:24:13 83° 103° (ESE) 09:28:28 437.405
SEEDS 19 Dec 09:23:15 09:27:34 78° 285° (WNW) 09:31:51 437.485
CUTE 1.7 + AOD 2 19 Dec 09:24:33 09:28:52 66° 286° (WNW) 09:33:08 437.475
AISAT 19 Dec 09:25:51 09:27:23 12° 88° (E) 09:28:55 437.250
DX 1 19 Dec 09:30:07 09:34:07 35° 98° (E) 09:38:05 434.975-435.025
PHONESAT 2.4 19 Dec 09:31:40 09:32:14 10° 210° (SSW) 09:32:49 2401.200-2431.200
DOVE 4 19 Dec 09:32:42 09:37:25 87° 104° (ESE) 09:42:24 437.250
POPSAT HIP 1 19 Dec 09:37:07 09:41:07 44° 71° (ENE) 09:45:08 437.405
MaSat-1 19 Dec 09:43:28 09:45:35 31° 302° (WNW) 09:47:39 437.345
YUBILEINY 19 Dec 09:45:00 09:52:34 32° 65° (ENE) 10:00:05 435.215
UNISAT 6 19 Dec 09:45:56 09:50:18 83° 75° (ENE) 09:54:49 437.425
DELFI C3 19 Dec 09:46:13 09:50:20 59° 101° (E) 09:54:23 145.870
50 SAT 19 Dec 09:49:29 09:52:15 17° 92° (E) 09:55:00 437.505
CUSAT 1 19 Dec 09:54:59 09:58:36 89° 279° (W) 10:03:31 437.405
Oscar 11 19 Dec 09:55:15 09:59:39 87° 104° (ESE) 10:04:01 145.826/435.025
HUMSAT D 19 Dec 09:58:35 10:02:17 27° 95° (E) 10:05:59 437.325/437.525
UKube-1 19 Dec 10:02:45 10:07:06 75° 103° (ESE) 10:11:25 .
CUBEBUG 2 19 Dec 10:03:46 10:08:23 71° 102° (ESE) 10:13:05 437.445
BRITE-PL 19 Dec 10:03:47 10:07:42 29° 292° (WNW) 10:11:53 437.365/2234.400
DUCHIFAT 1 19 Dec 10:05:44 10:09:56 88° 76° (ENE) 10:14:10 145.980
CINEMA 3 19 Dec 10:09:58 10:14:37 67° 286° (WNW) 10:19:27 145.822/145.860
BUGSAT 1 19 Dec 10:12:31 10:16:37 86° 76° (ENE) 10:20:43 437.445
ESTCUBE 1 19 Dec 10:15:43 10:18:32 16° 90° (E) 10:21:20 437.505/2401.250
ANTELSAT 19 Dec 10:17:58 10:22:10 46° 261° (W) 10:26:31 437.575/2403.000
VELOX 1 19 Dec 10:17:59 10:22:08 38° 98° (E) 10:26:15 145.980
QB50P2 19 Dec 10:18:09 10:22:21 67° 258° (WSW) 10:26:35 145.880/145.840
ZACube-1 19 Dec 10:21:20 10:25:51 78° 103° (ESE) 10:30:26 437.345
AAUSAT CUBESAT 2 19 Dec 10:21:54 10:25:28 26° 293° (WNW) 10:29:00 437.432
POLYITAN 1 19 Dec 10:26:31 10:30:38 54° 260° (W) 10:34:48 437.675
NANOSAT C BR1 19 Dec 10:30:12 10:34:18 50° 260° (W) 10:38:25 145.865
CANX-2 19 Dec 10:30:45 10:33:13 15° 299° (WNW) 10:35:41 2200.000
GOMX 1 19 Dec 10:38:54 10:42:14 20° 296° (WNW) 10:45:42 467.674
DANDE 19 Dec 10:39:48 10:43:07 36° 291° (WNW) 10:47:28 436.750
QB50P1 19 Dec 10:44:38 10:48:30 35° 263° (W) 10:52:24 145.935-145.965
UWE-3 19 Dec 10:45:26 10:49:52 53° 288° (WNW) 10:54:23 435.000/436.395/437.385
FUNcube-1 19 Dec 10:48:40 10:53:06 57° 287° (WNW) 10:57:34 145.935
Oscar 19 19 Dec 10:49:09 10:50:24 11° 53° (NE) 10:51:38 437.125/150
O/OREOS (USA 219) 19 Dec 10:51:28 10:55:56 64° 249° (WSW) 11:00:24 437.305
TIGRISAT 19 Dec 10:55:44 10:59:01 21° 268° (W) 11:02:23 435.000
HO-68 19 Dec 10:56:13 11:01:55 27° 305° (NW) 11:07:36 435.675
COMPASS 1 19 Dec 10:57:43 10:59:18 12° 301° (WNW) 11:00:53 437.405
AISAT 19 Dec 11:00:07 11:04:34 77° 286° (WNW) 11:09:00 437.250
DX 1 19 Dec 11:06:39 11:10:13 25° 295° (WNW) 11:13:47 434.975-435.025
CUBEBUG 1 19 Dec 11:11:47 11:16:03 55° 101° (E) 11:20:17 437.445
DOVE 4 19 Dec 11:12:22 11:14:37 13° 300° (WNW) 11:16:54 437.250
POPSAT HIP 1 19 Dec 11:14:18 11:17:14 18° 268° (W) 11:20:12 437.405
RS-15 19 Dec 11:18:23 11:28:22 44° 110° (ESE) 11:38:22 29.354- 29.394
DELFI C3 19 Dec 11:22:48 11:25:08 15° 298° (WNW) 11:27:28 145.870
50 SAT 19 Dec 11:23:44 11:27:43 46° 289° (WNW) 11:31:42 437.505
UNISAT 6 19 Dec 11:26:50 11:27:45 11° 273° (W) 11:28:41 437.425
Oscar 11 19 Dec 11:33:34 11:35:09 12° 302° (WNW) 11:36:44 145.826/435.025
HUMSAT D 19 Dec 11:34:16 11:38:06 32° 292° (WNW) 11:41:56 437.325/437.525
UKube-1 19 Dec 11:40:34 11:42:41 14° 301° (WNW) 11:44:48 .
YUBILEINY 19 Dec 11:41:27 11:50:00 65° 268° (W) 11:58:33 435.215
CUBEBUG 2 19 Dec 11:41:52 11:44:34 16° 299° (WNW) 11:47:19 437.445
ESTCUBE 1 19 Dec 11:51:21 11:55:46 57° 288° (WNW) 12:00:10 437.505/2401.250
VELOX 1 19 Dec 11:54:59 11:58:32 24° 295° (WNW) 12:02:03 145.980
ZACube-1 19 Dec 11:59:23 12:01:39 14° 300° (WNW) 12:03:56 437.345
Oscar 19 19 Dec 12:23:40 12:28:45 66° 72° (ENE) 12:33:54 437.125/150
Gurwin Techsat 1B 19 Dec 12:24:31 12:28:11 19° 59° (ENE) 12:31:50 435.225
SPROUT 19 Dec 12:25:44 12:30:04 83° 103° (ESE) 12:34:22 437.525
TISAT 1 19 Dec 12:27:19 12:31:33 89° 291° (WNW) 12:35:47 437.305
SWISSCUBE 19 Dec 12:33:49 12:37:14 19° 92° (E) 12:40:38 437.505
ITUPSAT 1 19 Dec 12:33:51 12:37:02 18° 91° (E) 12:40:13 437.325
ITAMSAT 1 19 Dec 12:36:40 12:41:21 36° 66° (ENE) 12:46:03 435.822/435.867
BEESAT 3 19 Dec 12:39:42 12:42:03 15° 110° (ESE) 12:44:25 437.485
AISAT 19 Dec 12:40:10 12:40:25 10° 304° (NW) 12:40:39 437.250
CUBEBUG 1 19 Dec 12:49:13 12:52:01 17° 298° (WNW) 12:54:49 437.445
BEESAT 19 Dec 12:58:34 13:02:48 30° 96° (E) 13:06:59 436.000
AUBIESAT-1 19 Dec 13:06:15 13:07:28 11° 91° (E) 13:08:40 437.475
AO-7 19 Dec 13:07:53 13:13:46 22° 46° (NE) 13:19:39 29.400- 29.500
ISS 19 Dec 13:11:04 13:12:13 11° 132° (SE) 13:13:23 145.825
BEESAT 2 19 Dec 13:16:42 13:20:21 31° 116° (ESE) 13:24:03 435.950
HORYU 2 19 Dec 13:20:24 13:23:43 21° 63° (ENE) 13:27:03 437.375
M-CUBED/EXP-1 PRIME 19 Dec 13:29:02 13:32:29 22° 97° (E) 13:35:42 437.505
RS-15 19 Dec 13:29:28 13:40:17 64° 314° (NW) 13:51:16 29.354- 29.394
YUBILEINY 19 Dec 13:41:35 13:44:57 13° 289° (WNW) 13:48:20 435.215
Gurwin Techsat 1B 19 Dec 14:02:19 14:07:36 70° 258° (WSW) 14:12:56 435.225
PCSat 19 Dec 14:02:26 14:07:45 61° 117° (ESE) 14:13:06 145.827
SPROUT 19 Dec 14:03:52 14:05:31 12° 301° (WNW) 14:07:11 437.525
Oscar 19 19 Dec 14:05:14 14:08:35 17° 270° (W) 14:11:57 437.125/150
TISAT 1 19 Dec 14:05:45 14:06:42 11° 302° (WNW) 14:07:40 437.305
ITUPSAT 1 19 Dec 14:10:37 14:15:19 58° 289° (WNW) 14:19:58 437.325
SWISSCUBE 19 Dec 14:10:46 14:15:25 52° 289° (WNW) 14:20:01 437.505
AIST 2 19 Dec 14:14:27 14:18:36 56° 121° (ESE) 14:22:49 435.215
BEESAT 3 19 Dec 14:15:39 14:19:44 65° 308° (NW) 14:23:54 437.485
ITAMSAT 1 19 Dec 14:16:12 14:20:51 33° 264° (W) 14:25:30 435.822/435.867
STARS 19 Dec 14:24:18 14:28:18 32° 97° (E) 14:32:16 437.465
KKS-1 19 Dec 14:24:46 14:29:06 47° 100° (E) 14:33:25 437.445
BEESAT 19 Dec 14:36:21 14:40:38 33° 293° (WNW) 14:44:53 436.000
AUBIESAT-1 19 Dec 14:38:39 14:43:08 79° 291° (WNW) 14:47:12 437.475
ISS 19 Dec 14:45:00 14:48:17 72° 149° (SSE) 14:51:35 145.825
JAS-2 19 Dec 14:48:40 14:54:45 28° 61° (ENE) 15:00:23 435.910
BEESAT 2 19 Dec 14:54:46 14:58:33 34° 315° (NW) 15:02:24 435.950
HORYU 2 19 Dec 14:55:46 15:00:04 47° 260° (W) 15:04:26 437.375
AO-7 19 Dec 14:57:00 15:05:18 78° 68° (ENE) 15:13:41 29.400- 29.500
M-CUBED/EXP-1 PRIME 19 Dec 15:03:27 15:07:43 41° 297° (WNW) 15:11:37 437.505
GONETS M04 19 Dec 15:39:35 15:47:35 37° 68° (ENE) 15:55:28
RS-15 19 Dec 15:45:55 15:55:19 31° 346° (NNW) 16:04:56 29.354- 29.394
PCSat 19 Dec 15:46:58 15:51:34 27° 318° (NW) 15:56:11 145.827
AIST 2 19 Dec 15:54:06 15:57:32 23° 321° (NW) 16:01:01 435.215
BEESAT 3 19 Dec 15:56:38 15:58:45 13° 329° (NNW) 16:00:52 437.485
CUTE-I 19 Dec 15:56:41 16:00:04 17° 58° (ENE) 16:03:26 437.470
STARS 19 Dec 16:00:54 16:04:41 28° 294° (WNW) 16:08:29 437.465
KKS-1 19 Dec 16:02:09 16:05:26 21° 297° (WNW) 16:08:44 437.445
AUBIESAT-1 19 Dec 16:15:45 16:17:13 12° 311° (NW) 16:18:40 437.475
AIST 1 19 Dec 16:15:57 16:20:10 47° 93° (E) 16:24:22
ISS 19 Dec 16:22:01 16:25:04 34° 348° (NNW) 16:28:08 145.825
JAS-2 19 Dec 16:31:39 16:39:18 71° 258° (WSW) 16:46:18 435.910
AO-7 19 Dec 16:52:19 16:58:54 26° 268° (W) 17:05:34 29.400- 29.500
Cubesat XI-IV 19 Dec 17:00:40 17:05:52 56° 70° (ENE) 17:11:05 437.490
MOZHAYETS 4 19 Dec 17:01:14 17:05:53 71° 102° (ESE) 17:10:29
CUTE-I 19 Dec 17:34:11 17:39:30 79° 256° (WSW) 17:44:51 437.470
GONETS M04 19 Dec 17:36:18 17:44:46 56° 270° (W) 17:53:09
MaSat-1 19 Dec 17:38:53 17:40:54 24° 57° (ENE) 17:43:01 437.345
HO-68 19 Dec 17:54:39 17:58:53 17° 48° (NE) 18:03:08 435.675
AIST 1 19 Dec 17:55:06 17:58:06 18° 292° (WNW) 18:01:07
ISS 19 Dec 17:59:13 18:02:13 31° 8° (N) 18:05:11 145.825
RS-15 19 Dec 18:02:08 18:11:54 34° 20° (NNE) 18:21:59 29.354- 29.394
STRAND 1 19 Dec 18:02:29 18:06:25 22° 92° (E) 18:10:18 437.568
PRISM 19 Dec 18:12:38 18:16:46 59° 101° (ESE) 18:20:51 437.425
CUBESAT XI-V 19 Dec 18:20:59 18:25:16 37° 97° (E) 18:29:31 437.345
JAS-2 19 Dec 18:21:36 18:25:17 14° 275° (W) 18:28:51 435.910
MOZHAYETS 4 19 Dec 18:39:53 18:42:33 15° 300° (WNW) 18:45:12
Cubesat XI-IV 19 Dec 18:42:17 18:46:19 22° 268° (W) 18:50:21 437.490
SEEDS 19 Dec 18:45:14 18:46:52 12° 59° (ENE) 18:48:30 437.485
CUTE 1.7 + AOD 2 19 Dec 18:46:24 18:48:40 14° 61° (ENE) 18:50:57 437.475
CUSAT 1 19 Dec 18:47:14 18:52:51 23° 63° (ENE) 18:59:02 437.405
DOVE 4 19 Dec 19:06:40 19:08:31 13° 59° (ENE) 19:10:24 437.250
MaSat-1 19 Dec 19:13:40 19:14:04 10° 251° (WSW) 19:14:28 437.345
CUTE-I 19 Dec 19:19:15 19:20:26 11° 274° (W) 19:21:37 437.470
Oscar 11 19 Dec 19:19:47 19:21:09 11° 58° (ENE) 19:22:31 145.826/435.025
UKube-1 19 Dec 19:27:47 19:29:00 11° 57° (ENE) 19:30:13 .
DANDE 19 Dec 19:32:43 19:39:27 37° 70° (ENE) 19:47:10 436.750
ISS 19 Dec 19:35:48 19:39:05 86° 27° (NNE) 19:42:22 145.825
HO-68 19 Dec 19:38:16 19:45:23 70° 69° (ENE) 19:52:32 435.675
GONETS M04 19 Dec 19:38:30 19:39:26 10° 292° (WNW) 19:40:22
BRITE-PL 19 Dec 19:39:08 19:43:09 47° 72° (ENE) 19:47:09 437.365/2234.400
CINEMA 3 19 Dec 19:39:25 19:42:06 17° 62° (ENE) 19:44:51 145.822/145.860
AAUSAT CUBESAT 2 19 Dec 19:39:53 19:43:35 30° 68° (ENE) 19:47:18 437.432
STRAND 1 19 Dec 19:40:57 19:45:53 51° 290° (WNW) 19:50:48 437.568
CANX-2 19 Dec 19:48:51 19:53:03 62° 74° (ENE) 19:57:19 2200.000
PRISM 19 Dec 19:49:26 19:51:51 15° 299° (WNW) 19:54:14 437.425
BEESAT 2 19 Dec 19:57:44 19:58:55 11° 27° (NNE) 20:00:05 435.950
CUBESAT XI-V 19 Dec 19:58:44 20:02:33 26° 295° (WNW) 20:06:21 437.345
UWE-3 19 Dec 20:10:19 20:13:18 19° 63° (ENE) 20:16:20 435.000/436.395/437.385
GOMX 1 19 Dec 20:11:13 20:15:20 76° 75° (ENE) 20:19:32 467.674
FUNcube-1 19 Dec 20:12:39 20:15:25 17° 62° (ENE) 20:18:12 145.935
COMPASS 1 19 Dec 20:13:47 20:18:00 78° 75° (ENE) 20:22:16 437.405
RS-15 19 Dec 20:15:17 20:26:31 74° 50° (NE) 20:38:14 29.354- 29.394
SEEDS 19 Dec 20:17:49 20:22:03 82° 257° (WSW) 20:26:22 437.485
CUTE 1.7 + AOD 2 19 Dec 20:19:49 20:24:04 68° 258° (WSW) 20:28:22 437.475
AISAT 19 Dec 20:26:15 20:28:56 16° 61° (ENE) 20:31:37 437.250
DX 1 19 Dec 20:28:09 20:32:14 42° 69° (ENE) 20:36:21 434.975-435.025
CUSAT 1 19 Dec 20:29:14 20:36:44 87° 80° (E) 20:45:17 437.405
SO-50 19 Dec 20:29:56 20:33:22 21° 112° (ESE) 20:36:52 436.795
DELFI C3 19 Dec 20:37:04 20:41:04 52° 72° (ENE) 20:45:06 145.870
50 SAT 19 Dec 20:40:57 20:43:26 16° 62° (ENE) 20:45:56 437.505
DOVE 4 19 Dec 20:41:38 20:45:45 70° 258° (WSW) 20:49:57 437.250
Oscar 11 19 Dec 20:52:17 20:56:38 90° 257° (WSW) 21:01:01 145.826/435.025
HUMSAT D 19 Dec 20:53:37 20:57:05 26° 67° (ENE) 21:00:36 437.325/437.525
BEESAT 3 19 Dec 20:55:31 20:59:02 25° 41° (NE) 21:02:30 437.485
AIST 2 19 Dec 20:56:33 20:59:15 16° 33° (NNE) 21:01:56 435.215
UKube-1 19 Dec 21:00:07 21:04:27 88° 75° (ENE) 21:08:49 .
CUBEBUG 2 19 Dec 21:04:53 21:09:03 78° 75° (ENE) 21:13:22 437.445
PCSat 19 Dec 21:05:15 21:09:08 19° 36° (NE) 21:12:59 145.827
ISS 19 Dec 21:13:14 21:15:17 16° 225° (SW) 21:17:19 145.825
CINEMA 3 19 Dec 21:14:53 21:18:56 51° 261° (W) 21:23:06 145.822/145.860
AAUSAT CUBESAT 2 19 Dec 21:15:40 21:19:15 27° 265° (W) 21:22:52 437.432
DANDE 19 Dec 21:15:55 21:23:09 58° 265° (W) 21:31:31 436.750
ESTCUBE 1 19 Dec 21:17:53 21:21:19 22° 63° (ENE) 21:24:46 437.505/2401.250
VELOX 1 19 Dec 21:18:14 21:22:28 47° 71° (ENE) 21:26:43 145.980
BRITE-PL 19 Dec 21:19:28 21:22:00 16° 269° (W) 21:24:33 437.365/2234.400
ZACube-1 19 Dec 21:20:03 21:24:13 83° 76° (ENE) 21:28:31 437.345
CANX-2 19 Dec 21:27:16 21:29:26 14° 271° (W) 21:31:36 2200.000
HO-68 19 Dec 21:27:58 21:33:41 25° 268° (W) 21:39:25 435.675
BEESAT 2 19 Dec 21:34:10 21:38:14 45° 48° (NE) 21:42:14 435.950
UNISAT 6 19 Dec 21:36:49 21:39:42 16° 90° (E) 21:42:36 437.425
UWE-3 19 Dec 21:45:31 21:49:32 45° 262° (W) 21:53:39 435.000/436.395/437.385
FUNcube-1 19 Dec 21:47:18 21:51:22 51° 261° (W) 21:55:33 145.935
TISAT 1 19 Dec 21:50:00 21:51:13 11° 58° (ENE) 21:52:27 437.305
SPROUT 19 Dec 21:50:24 21:51:12 11° 58° (ENE) 21:52:01 437.525
DUCHIFAT 1 19 Dec 21:50:32 21:52:16 12° 89° (E) 21:54:00 145.980
COMPASS 1 19 Dec 21:53:21 21:54:17 11° 273° (W) 21:55:13 437.405
BUGSAT 1 19 Dec 21:55:57 21:56:08 10° 88° (E) 21:56:18 437.445
AISAT 19 Dec 22:00:43 22:05:05 62° 258° (WSW) 22:09:29 437.250
QB50P2 19 Dec 22:02:25 22:05:14 17° 91° (E) 22:08:03 145.880/145.840
DX 1 19 Dec 22:05:26 22:08:40 20° 267° (W) 22:11:56 434.975-435.025
ANTELSAT 19 Dec 22:07:40 22:11:52 31° 96° (E) 22:16:04 437.575/2403.000
SO-50 19 Dec 22:09:02 22:13:31 55° 311° (NW) 22:18:11 436.795
CUBEBUG 1 19 Dec 22:10:23 22:14:42 63° 73° (ENE) 22:19:02 437.445
POLYITAN 1 19 Dec 22:10:32 22:13:47 21° 93° (E) 22:17:02 437.675
CUSAT 1 19 Dec 22:13:34 22:19:12 23° 276° (W) 22:25:18 437.405
NANOSAT C BR1 19 Dec 22:13:38 22:16:57 22° 93° (E) 22:20:15 145.865
DELFI C3 19 Dec 22:14:14 22:16:40 15° 270° (W) 22:19:06 145.870
50 SAT 19 Dec 22:14:21 22:18:16 51° 260° (W) 22:22:15 437.505
QB50P1 19 Dec 22:27:31 22:31:18 30° 96° (E) 22:35:03 145.935-145.965
RS-15 19 Dec 22:28:17 22:38:08 37° 253° (WSW) 22:48:24 29.354- 29.394
HUMSAT D 19 Dec 22:29:09 22:32:48 30° 264° (W) 22:36:31 437.325/437.525
BEESAT 3 19 Dec 22:33:24 22:37:25 46° 240° (WSW) 22:41:23 437.485
AIST 2 19 Dec 22:34:15 22:38:35 80° 53° (NE) 22:42:50 435.215
TIGRISAT 19 Dec 22:43:32 22:48:13 69° 102° (ESE) 22:52:55 435.000
CUBEBUG 2 19 Dec 22:45:44 22:46:23 10° 273° (W) 22:47:02 437.445
PCSat 19 Dec 22:47:56 22:53:24 82° 57° (ENE) 22:58:49 145.827
YUBILEINY 19 Dec 22:49:52 22:57:15 32° 83° (E) 23:04:37 435.215
ESTCUBE 1 19 Dec 22:53:33 22:57:55 45° 261° (W) 23:02:18 437.505/2401.250
POPSAT HIP 1 19 Dec 22:55:48 23:00:01 60° 101° (E) 23:04:14 437.405
VELOX 1 19 Dec 22:56:12 22:59:19 19° 268° (W) 23:02:26 145.980
DANDE 19 Dec 23:02:51 23:05:29 12° 282° (WNW) 23:08:13 436.750
UNISAT 6 19 Dec 23:12:14 23:16:54 63° 287° (WNW) 23:21:34 437.425
BEESAT 2 19 Dec 23:12:57 23:16:14 22° 246° (WSW) 23:19:28 435.950
TISAT 1 19 Dec 23:22:11 23:26:24 87° 256° (WSW) 23:30:38 437.305
SPROUT 19 Dec 23:22:18 23:26:35 86° 76° (ENE) 23:30:53 437.525
DUCHIFAT 1 19 Dec 23:24:21 23:28:35 69° 286° (WNW) 23:32:49 145.980
BUGSAT 1 19 Dec 23:28:05 23:32:08 76° 285° (WNW) 23:36:12 437.445
O/OREOS (USA 219) 19 Dec 23:31:17 23:31:42 10° 96° (E) 23:32:08 437.305
QB50P2 19 Dec 23:37:18 23:41:26 49° 289° (WNW) 23:45:33 145.880/145.840
SWISSCUBE 19 Dec 23:42:44 23:46:53 30° 66° (ENE) 23:51:03 437.505
ITUPSAT 1 19 Dec 23:42:56 23:47:00 28° 65° (ENE) 23:51:04 437.325
ANTELSAT 19 Dec 23:44:27 23:48:38 32° 293° (WNW) 23:52:49 437.575/2403.000
POLYITAN 1 19 Dec 23:45:52 23:49:54 40° 290° (WNW) 23:53:55 437.675
NANOSAT C BR1 19 Dec 23:49:01 23:52:57 38° 291° (WNW) 23:56:53 145.865
CUBEBUG 1 19 Dec 23:49:14 23:51:30 14° 270° (W) 23:53:46 437.445
SO-50 19 Dec 23:52:34 23:55:09 14° 334° (NNW) 23:57:46 436.795
AUBIESAT-1 19 Dec 23:55:16 23:59:22 28° 59° (ENE) 00:03:29 437.475
QB50P1 20 Dec 00:03:30 00:07:07 28° 293° (WNW) 00:10:45 145.935-145.965
BEESAT 20 Dec 00:07:25 00:11:59 46° 70° (ENE) 00:16:35 436.000
AIST 2 20 Dec 00:14:45 00:16:34 13° 251° (WSW) 00:18:22 435.215
M-CUBED/EXP-1 PRIME 20 Dec 00:19:29 00:24:08 48° 65° (ENE) 00:28:52 437.505
TIGRISAT 20 Dec 00:21:33 00:24:27 17° 299° (WNW) 00:27:22 435.000
PCSat 20 Dec 00:32:54 00:36:06 16° 256° (WSW) 00:39:17 145.827
POPSAT HIP 1 20 Dec 00:32:57 00:35:28 16° 299° (WNW) 00:38:00 437.405
Oscar 19 20 Dec 00:33:39 00:37:23 20° 91° (E) 00:41:06 437.125/150
YUBILEINY 20 Dec 00:44:53 00:53:31 62° 284° (WNW) 01:02:10 435.215
O/OREOS (USA 219) 20 Dec 01:05:54 01:10:21 87° 294° (WNW) 01:14:51 437.305
ITUPSAT 1 20 Dec 01:20:16 01:24:44 38° 262° (W) 01:29:14 437.325
SWISSCUBE 20 Dec 01:20:17 01:24:40 35° 263° (W) 01:29:04 437.505
STARS 20 Dec 01:23:54 01:27:57 39° 69° (ENE) 01:32:03 437.465
KKS-1 20 Dec 01:25:24 01:29:45 58° 72° (ENE) 01:34:07 437.445
AUBIESAT-1 20 Dec 01:29:28 01:34:04 44° 257° (WSW) 01:38:46 437.475
BEESAT 20 Dec 01:46:21 01:50:03 22° 267° (W) 01:53:47 436.000
M-CUBED/EXP-1 PRIME 20 Dec 01:55:22 01:59:18 25° 262° (W) 02:03:19 437.505
Oscar 19 20 Dec 02:12:00 02:17:07 60° 289° (WNW) 02:22:13 437.125/150
Gurwin Techsat 1B 20 Dec 02:16:10 02:21:08 39° 97° (E) 02:26:05 435.225
AIST 1 20 Dec 02:21:43 02:24:24 16° 67° (ENE) 02:27:04
